W9JOL Weather Reports


time (UTC)temp
C
wind
direction
speed
KPH
gust
KPH
rain 1hr
cm
rain 24hr
cm
rain mn
cm
humidity
%
barometer
mb
20260906131027 20 359 1.6 4.8 0.00 0.00 0.00 91 1018.5
20260906130526 19 0 0.0 3.2 0.00 0.00 0.00 92 1018.5
20260906130257 19 22 0.0 3.2 0.00 0.00 0.00 93 1018.3
20260906125526 19 41 0.0 3.2 0.00 0.00 0.00 93 1018.3
20260906125026 18 33 0.0 3.2 0.00 0.00 0.00 93 1018.4
20260906124526 18 12 0.0 1.6 0.00 0.00 0.00 93 1018.3
20260906124303 18 80 0.0 3.2 0.00 0.00 0.00 93 1018.2
20260906123756 18 54 0.0 3.2 0.00 0.00 0.00 93 1018.1
20260906123023 18 0 0.0 3.2 0.00 0.00 0.00 94 1018.2
20260906122523 18 52 1.6 3.2 0.00 0.00 0.00 94 1018.2
20260906122024 18 0 1.6 4.8 0.00 0.00 0.00 94 1018.2
20260906121525 18 33 1.6 4.8 0.00 0.00 0.00 94 1018.1
20260906121026 17 32 1.6 3.2 0.00 0.00 0.00 94 1018.0
20260906120526 17 21 0.0 3.2 0.00 0.00 0.00 94 1017.9
20260906120024 17 0 0.0 1.6 0.00 0.00 0.00 94 1017.8
20260906115526 17 336 0.0 1.6 0.00 0.00 0.00 94 1017.8
20260906115025 17 0 0.0 3.2 0.00 0.00 0.00 93 1017.6
20260906114531 17 0 0.0 3.2 0.00 0.00 0.00 93 1017.6
20260906114031 17 0 0.0 3.2 0.00 0.00 0.00 93 1017.5
20260906113531 17 0 0.0 1.6 0.00 0.00 0.00 93 1017.3
20260906113302 17 0 0.0 3.2 0.00 0.00 0.00 93 1017.3
20260906112527 17 0 0.0 3.2 0.00 0.00 0.00 93 1017.4
20260906112028 17 68 1.6 3.2 0.00 0.00 0.00 93 1017.3
20260906111759 17 340 0.0 3.2 0.00 0.00 0.00 93 1017.3
20260906111027 17 33 0.0 3.2 0.00 0.00 0.00 93 1017.3
20260906110530 18 49 0.0 3.2 0.00 0.00 0.00 93 1017.3
20260906110030 18 0 0.0 1.6 0.00 0.00 0.00 93 1017.2
20260906105529 18 0 0.0 1.6 0.00 0.00 0.00 93 1017.0
20260906105028 18 0 0.0 3.2 0.00 0.00 0.00 93 1017.0
20260906104529 18 84 1.6 3.2 0.00 0.00 0.00 93 1017.1
20260906104021 17 8 0.0 3.2 0.00 0.00 0.00 93 1017.1
20260906103521 17 352 0.0 3.2 0.00 0.00 0.00 93 1017.0
20260906103021 17 25 0.0 1.6 0.00 0.00 0.00 93 1017.0
20260906102521 17 0 0.0 3.2 0.00 0.00 0.00 93 1017.1
20260906102021 17 0 0.0 3.2 0.00 0.00 0.00 93 1017.1
20260906101753 17 14 0.0 3.2 0.00 0.00 0.00 93 1017.1
20260906101020 17 347 0.0 3.2 0.00 0.00 0.00 93 1017.1
20260906100521 18 0 0.0 3.2 0.00 0.00 0.00 93 1017.0
20260906100022 18 0 0.0 3.2 0.00 0.00 0.00 93 1017.0
20260906095751 18 0 1.6 4.8 0.00 0.00 0.00 93 1017.1
20260906095250 18 17 1.6 4.8 0.00 0.00 0.00 93 1017.1
20260906094518 18 33 0.0 3.2 0.00 0.00 0.00 93 1017.0
20260906094019 18 0 0.0 3.2 0.00 0.00 0.00 93 1016.9
20260906093515 18 319 0.0 3.2 0.00 0.00 0.00 93 1016.9
20260906093248 17 357 0.0 1.6 0.00 0.00 0.00 94 1016.8
20260906092515 17 0 0.0 1.6 0.00 0.00 0.00 94 1016.8
20260906092014 17 0 0.0 1.6 0.00 0.00 0.00 94 1016.7
20260906091746 17 0 0.0 1.6 0.00 0.00 0.00 94 1016.7
20260906091015 17 0 0.0 1.6 0.00 0.00 0.00 94 1016.8
20260906090513 17 339 0.0 1.6 0.00 0.00 0.00 94 1016.9
20260906090012 17 0 0.0 0.0 0.00 0.00 0.00 94 1016.9
20260906085513 18 0 0.0 1.6 0.00 0.00 0.00 94 1016.8
20260906085013 18 0 0.0 1.6 0.00 0.00 0.00 94 1016.8
20260906084519 18 0 0.0 1.6 0.00 0.00 0.00 94 1016.9
20260906084010 18 0 0.0 3.2 0.00 0.00 0.00 94 1016.9
20260906083510 17 0 0.0 3.2 0.00 0.00 0.00 94 1016.9
20260906083010 17 0 0.0 3.2 0.00 0.00 0.00 94 1016.8
20260906082510 17 342 0.0 3.2 0.00 0.00 0.00 94 1016.7
20260906082010 17 0 0.0 1.6 0.00 0.00 0.00 94 1016.7
20260906081511 17 0 0.0 0.0 0.00 0.00 0.00 94 1016.7
20260906081010 17 0 0.0 0.0 0.00 0.00 0.00 94 1016.7
20260906080511 17 0 0.0 1.6 0.00 0.00 0.00 94 1016.7
20260906080241 17 0 0.0 1.6 0.00 0.00 0.00 94 1016.8
20260906075738 17 349 0.0 3.2 0.00 0.00 0.00 93 1016.7
20260906075238 17 0 0.0 3.2 0.00 0.00 0.00 94 1016.8
20260906074739 17 146 0.0 3.2 0.00 0.00 0.00 93 1016.8
20260906074009 17 0 0.0 3.2 0.00 0.00 0.00 93 1016.7
20260906073509 17 0 0.0 3.2 0.00 0.00 0.00 94 1016.7
20260906073009 17 0 0.0 1.6 0.00 0.00 0.00 93 1016.8
20260906072510 17 0 0.0 1.6 0.00 0.00 0.00 93 1016.7
20260906072015 17 0 0.0 3.2 0.00 0.00 0.00 93 1016.6
20260906071509 17 0 0.0 3.2 0.00 0.00 0.00 93 1016.6
20260906071009 17 0 0.0 1.6 0.00 0.00 0.00 93 1016.6
20260906070508 17 0 0.0 1.6 0.00 0.00 0.00 93 1016.6
20260906070008 17 0 0.0 0.0 0.00 0.00 0.00 93 1016.6
20260906065508 17 0 0.0 0.0 0.00 0.00 0.00 93 1016.7
20260906065008 17 0 0.0 0.0 0.00 0.00 0.00 93 1016.7
20260906064509 17 0 0.0 0.0 0.00 0.00 0.00 93 1016.7
20260906064006 17 0 0.0 0.0 0.00 0.00 0.00 93 1016.7
20260906063507 17 0 0.0 0.0 0.00 0.00 0.00 93 1016.7
20260906063007 17 0 0.0 1.6 0.00 0.00 0.00 93 1016.7
20260906062507 17 0 0.0 1.6 0.00 0.00 0.00 93 1016.8
20260906062007 17 0 0.0 1.6 0.00 0.00 0.00 93 1016.8
20260906061507 17 0 0.0 1.6 0.00 0.00 0.00 92 1016.7
20260906061007 17 0 0.0 1.6 0.00 0.00 0.00 92 1016.7
20260906060507 17 180 0.0 1.6 0.00 0.00 0.00 92 1016.7
20260906060007 17 82 0.0 1.6 0.00 0.00 0.00 92 1016.7
20260906055507 17 0 0.0 1.6 0.00 0.00 0.00 92 1016.6
20260906055006 17 240 0.0 0.0 0.00 0.00 0.00 92 1016.6
20260906054507 17 0 0.0 0.0 0.00 0.00 0.00 92 1016.7
20260906054005 17 0 0.0 0.0 0.00 0.00 0.00 92 1016.6
20260906053505 17 0 0.0 0.0 0.00 0.00 0.00 92 1016.6
20260906053005 18 0 0.0 1.6 0.00 0.00 0.00 92 1016.7
20260906052504 17 0 0.0 1.6 0.00 0.00 0.00 92 1016.7
20260906052234 17 311 0.0 1.6 0.00 0.00 0.00 91 1016.5
20260906051504 17 0 0.0 0.0 0.00 0.00 0.00 91 1016.4
20260906051004 17 0 0.0 3.2 0.00 0.00 0.00 91 1016.4
20260906050505 17 0 0.0 3.2 0.00 0.00 0.00 90 1016.3
20260906050004 17 313 0.0 1.6 0.00 0.00 0.00 91 1016.4
20260906045504 17 0 0.0 1.6 0.00 0.00 0.00 90 1016.4
20260906045237 17 0 0.0 1.6 0.00 0.00 0.00 90 1016.4
20260906044505 17 0 0.0 1.6 0.00 0.00 0.00 90 1016.3
20260906044001 17 0 0.0 1.6 0.00 0.00 0.00 90 1016.2
20260906043502 18 0 0.0 1.6 0.00 0.00 0.00 89 1016.1
20260906043002 18 0 0.0 1.6 0.00 0.00 0.00 89 1016.0
20260906042502 18 0 0.0 1.6 0.00 0.00 0.00 89 1016.0
20260906042002 18 0 0.0 1.6 0.00 0.00 0.00 89 1015.9
20260906041734 18 0 0.0 1.6 0.00 0.00 0.00 88 1015.9
20260906041002 18 326 0.0 1.6 0.00 0.00 0.00 88 1015.8
20260906040504 18 0 0.0 1.6 0.00 0.00 0.00 87 1015.8
20260906040002 18 0 0.0 1.6 0.00 0.00 0.00 86 1015.7
20260906035502 18 0 0.0 1.6 0.00 0.00 0.00 86 1015.8
20260906035003 19 0 0.0 1.6 0.00 0.00 0.00 85 1015.9
20260906034501 19 329 0.0 3.2 0.00 0.00 0.00 84 1015.9
20260906034000 19 0 0.0 3.2 0.00 0.00 0.00 83 1015.8
20260906033500 19 7 0.0 3.2 0.00 0.00 0.00 83 1015.7
20260906033000 19 316 0.0 3.2 0.00 0.00 0.00 83 1015.7
20260906032459 19 0 0.0 3.2 0.00 0.00 0.00 83 1015.7
20260906032000 20 36 1.6 3.2 0.00 0.00 0.00 84 1015.6
20260906031501 20 358 1.6 4.8 0.00 0.00 0.00 84 1015.6
20260906031000 20 320 1.6 4.8 0.00 0.00 0.00 86 1015.6
20260906030501 20 10 1.6 4.8 0.00 0.00 0.00 87 1015.6
20260906030000 20 0 1.6 3.2 0.00 0.00 0.00 87 1015.7
20260906025459 20 2 1.6 6.4 0.00 0.00 0.00 87 1015.6
20260906024957 20 356 1.6 6.4 0.00 0.00 0.00 87 1015.6
20260906024459 20 334 1.6 6.4 0.00 0.00 0.00 88 1015.6
20260906023957 20 0 1.6 4.8 0.00 0.00 0.00 88 1015.6
20260906023458 20 18 1.6 4.8 0.00 0.00 0.00 89 1015.6
20260906022959 20 2 1.6 4.8 0.00 0.00 0.00 90 1015.5
20260906022458 20 338 0.0 4.8 0.00 0.00 0.00 90 1015.4
20260906021958 20 18 0.0 3.2 0.00 0.00 0.00 90 1015.4
20260906021458 20 0 0.0 3.2 0.00 0.00 0.00 90 1015.3
20260906020958 20 0 0.0 3.2 0.00 0.00 0.00 90 1015.4
20260906020500 20 331 0.0 3.2 0.00 0.00 0.00 90 1015.3
20260906020000 20 0 0.0 3.2 0.00 0.00 0.00 89 1015.3
20260906015500 20 0 0.0 3.2 0.00 0.00 0.00 89 1015.3
20260906014955 20 342 0.0 3.2 0.00 0.00 0.00 89 1015.4
20260906014453 20 0 0.0 1.6 0.00 0.00 0.00 89 1015.3
20260906013956 20 0 0.0 1.6 0.00 0.00 0.00 88 1015.4
20260906013454 20 0 0.0 3.2 0.00 0.00 0.00 88 1015.4
20260906012954 20 0 0.0 3.2 0.00 0.00 0.00 88 1015.5
20260906012454 20 0 0.0 3.2 0.00 0.00 0.00 88 1015.5
20260906011954 20 0 0.0 4.8 0.00 0.00 0.00 88 1015.4
20260906011455 20 346 1.6 6.4 0.00 0.00 0.00 88 1015.4
20260906010951 20 340 1.6 6.4 0.00 0.00 0.00 88 1015.5
20260906010451 20 340 1.6 4.8 0.00 0.00 0.00 88 1015.6
20260906005948 21 343 0.0 3.2 0.00 0.00 0.00 88 1015.4
20260906005449 21 357 1.6 4.8 0.00 0.00 0.00 87 1015.4
20260906004948 21 8 1.6 4.8 0.00 0.00 0.00 87 1015.5
20260906004448 21 5 1.6 6.4 0.00 0.00 0.00 87 1015.4
20260906003949 21 285 1.6 6.4 0.00 0.00 0.00 87 1015.4
20260906003449 21 19 1.6 3.2 0.00 0.00 0.00 86 1015.4
20260906002949 21 352 1.6 4.8 0.00 0.00 0.00 86 1015.5
20260906002450 21 8 1.6 4.8 0.00 0.00 0.00 86 1015.4
20260906001949 21 37 1.6 8.0 0.00 0.00 0.00 86 1015.4
20260906001450 21 339 1.6 8.0 0.00 0.00 0.00 85 1015.3
20260906000949 21 26 1.6 4.8 0.00 0.00 0.00 85 1015.2
20260906000447 21 352 3.2 11.3 0.00 0.00 0.00 84 1015.1
20260905235945 21 27 3.2 11.3 0.00 0.00 0.00 84 1015.1
20260905235447 22 274 1.6 6.4 0.00 0.00 0.00 84 1015.1
20260905234948 22 160 1.6 6.4 0.00 0.00 0.00 83 1015.1
20260905234446 22 207 1.6 6.4 0.00 0.00 0.00 83 1015.2
20260905233944 22 256 1.6 8.0 0.00 0.00 0.00 83 1015.2
20260905233444 22 346 3.2 11.3 0.00 0.00 0.00 83 1015.2
20260905233215 22 353 1.6 11.3 0.00 0.00 0.00 83 1015.3
20260905232444 22 27 1.6 6.4 0.00 0.00 0.00 82 1015.2
20260905231944 22 349 1.6 6.4 0.00 0.00 0.00 82 1015.2
20260905231445 22 349 3.2 8.0 0.00 0.00 0.00 82 1015.2
20260905230943 22 348 3.2 8.0 0.00 0.00 0.00 81 1015.2
20260905230444 23 0 1.6 6.4 0.00 0.00 0.00 81 1015.2
20260905230214 23 312 3.2 8.0 0.00 0.00 0.00 81 1015.2
20260905225438 23 5 3.2 8.0 0.00 0.00 0.00 81 1015.1
20260905224938 23 19 1.6 6.4 0.00 0.00 0.00 80 1015.0
20260905224702 23 224 1.6 6.4 0.00 0.00 0.00 80 1014.9
20260905223935 23 0 1.6 6.4 0.00 0.00 0.00 79 1014.9
20260905223435 23 9 3.2 8.0 0.00 0.00 0.00 79 1014.9
20260905222935 24 206 3.2 8.0 0.00 0.00 0.00 78 1014.8
20260905222435 24 339 3.2 8.0 0.00 0.00 0.00 76 1014.8
20260905222207 24 138 3.2 8.0 0.00 0.00 0.00 75 1014.8
20260905221435 24 1 3.2 6.4 0.00 0.00 0.00 75 1014.7
20260905220934 24 347 1.6 6.4 0.00 0.00 0.00 75 1014.7
20260905220433 24 341 1.6 8.0 0.00 0.00 0.00 75 1014.7
20260905215933 24 319 3.2 9.7 0.00 0.00 0.00 75 1014.5
20260905215433 25 337 3.2 9.7 0.00 0.00 0.00 75 1014.4
20260905215204 25 288 3.2 11.3 0.00 0.00 0.00 74 1014.4
20260905214434 25 342 3.2 11.3 0.00 0.00 0.00 75 1014.3
20260905213940 25 333 1.6 8.0 0.00 0.00 0.00 74 1014.3
20260905213435 25 349 3.2 6.4 0.00 0.00 0.00 74 1014.3
20260905212934 25 0 1.6 8.0 0.00 0.00 0.00 74 1014.2
20260905212704 25 338 3.2 9.7 0.00 0.00 0.00 75 1014.1
20260905211934 25 154 3.2 9.7 0.00 0.00 0.00 74 1014.2
20260905211434 25 318 3.2 8.0 0.00 0.00 0.00 73 1014.1
20260905210930 25 94 3.2 9.7 0.00 0.00 0.00 74 1014.1
20260905210428 25 142 3.2 9.7 0.00 0.00 0.00 74 1014.1
20260905210203 25 15 3.2 9.7 0.00 0.00 0.00 73 1014.0
20260905205702 25 77 3.2 9.7 0.00 0.00 0.00 74 1013.9
20260905204927 25 346 3.2 9.7 0.00 0.00 0.00 74 1014.0
20260905204701 25 16 3.2 9.7 0.00 0.00 0.00 75 1014.1
20260905203925 26 5 3.2 9.7 0.00 0.00 0.00 75 1014.1
20260905203425 26 21 3.2 6.4 0.00 0.00 0.00 75 1014.1
20260905202925 26 135 3.2 8.0 0.00 0.00 0.00 75 1014.1
20260905202425 26 337 3.2 8.0 0.00 0.00 0.00 75 1014.1
20260905201925 26 14 3.2 8.0 0.00 0.00 0.00 74 1014.1
20260905201425 26 24 3.2 9.7 0.00 0.00 0.00 75 1014.1
20260905200925 26 39 3.2 9.7 0.00 0.00 0.00 76 1014.1
20260905200425 26 20 3.2 9.7 0.00 0.00 0.00 74 1014.2
20260905195925 26 15 4.8 9.7 0.00 0.00 0.00 73 1014.1
20260905195424 27 122 4.8 12.9 0.00 0.00 0.00 70 1014.1
20260905195154 27 15 4.8 12.9 0.00 0.00 0.00 70 1014.1
20260905194420 27 356 4.8 9.7 0.00 0.00 0.00 70 1014.0
20260905193920 27 99 3.2 9.7 0.00 0.00 0.00 69 1014.0
20260905193420 27 342 3.2 9.7 0.00 0.00 0.00 69 1014.1
20260905192920 26 282 3.2 9.7 0.00 0.00 0.00 72 1014.2
20260905192420 27 342 3.2 9.7 0.00 0.00 0.00 70 1014.2
20260905191920 27 64 3.2 9.7 0.00 0.00 0.00 68 1014.2
20260905191422 27 336 3.2 9.7 0.00 0.00 0.00 67 1014.1
20260905191150 26 40 3.2 11.3 0.00 0.00 0.00 69 1014.1
20260905190420 27 353 3.2 11.3 0.00 0.00 0.00 69 1014.2
20260905185920 27 17 3.2 9.7 0.00 0.00 0.00 68 1014.3
20260905185419 27 68 3.2 9.7 0.00 0.00 0.00 67 1014.3
20260905184918 27 335 3.2 8.0 0.00 0.00 0.00 69 1014.2
20260905184418 27 16 3.2 9.7 0.00 0.00 0.00 69 1014.3
20260905183918 27 347 3.2 9.7 0.00 0.00 0.00 71 1014.3
20260905183649 26 352 3.2 9.7 0.00 0.00 0.00 71 1014.3
20260905182919 26 353 3.2 8.0 0.00 0.00 0.00 73 1014.4
20260905182418 26 343 3.2 8.0 0.00 0.00 0.00 74 1014.4
20260905181918 26 16 3.2 8.0 0.00 0.00 0.00 73 1014.4
20260905181418 26 356 3.2 8.0 0.00 0.00 0.00 75 1014.4
20260905180915 26 313 3.2 8.0 0.00 0.00 0.00 74 1014.4
20260905180417 27 80 1.6 8.0 0.00 0.00 0.00 72 1014.4
20260905175917 26 138 1.6 6.4 0.00 0.00 0.00 74 1014.5
20260905175646 26 0 1.6 6.4 0.00 0.00 0.00 76 1014.5
20260905174914 26 348 1.6 4.8 0.00 0.00 0.00 78 1014.4
20260905174415 26 320 1.6 4.8 0.00 0.00 0.00 76 1014.4
20260905173913 25 0 1.6 4.8 0.00 0.00 0.00 78 1014.5
20260905173411 25 123 1.6 4.8 0.00 0.00 0.00 79 1014.7
20260905172911 25 0 1.6 4.8 0.00 0.00 0.00 80 1014.7
20260905172412 25 5 1.6 4.8 0.00 0.00 0.00 80 1014.7
20260905171912 25 15 1.6 4.8 0.00 0.00 0.00 80 1014.7
20260905171644 24 0 1.6 6.4 0.00 0.00 0.00 80 1014.8
20260905170912 25 0 1.6 6.4 0.00 0.00 0.00 80 1014.6
20260905170413 25 81 1.6 6.4 0.00 0.00 0.00 80 1014.7
20260905165913 25 9 1.6 4.8 0.00 0.00 0.00 80 1014.7
20260905165411 25 0 1.6 4.8 0.00 0.00 0.00 80 1014.8
20260905164913 24 0 1.6 4.8 0.00 0.00 0.00 80 1014.8
20260905164413 24 18 0.0 4.8 0.00 0.00 0.00 82 1014.8
20260905163910 24 124 1.6 6.4 0.00 0.00 0.00 82 1014.9
20260905163636 23 330 1.6 6.4 0.00 0.00 0.00 83 1014.9
20260905162906 23 1 1.6 6.4 0.00 0.00 0.00 82 1014.8
20260905162406 23 332 1.6 4.8 0.00 0.00 0.00 84 1014.8
20260905161906 23 39 1.6 6.4 0.00 0.00 0.00 84 1014.8
20260905161406 23 20 3.2 6.4 0.00 0.00 0.00 83 1014.8
20260905160907 23 45 3.2 8.0 0.00 0.00 0.00 83 1014.8
20260905160407 23 13 1.6 8.0 0.00 0.00 0.00 82 1014.8
20260905155907 23 211 1.6 4.8 0.00 0.03 0.00 83 1014.9
20260905155406 23 15 1.6 4.8 0.00 0.03 0.00 83 1014.8
20260905155142 23 0 1.6 9.7 0.00 0.05 0.00 84 1014.8
20260905154404 23 310 3.2 9.7 0.00 0.30 0.00 84 1014.8
20260905153903 23 13 3.2 8.0 0.00 0.33 0.00 85 1014.8
20260905153404 23 355 3.2 8.0 0.00 0.38 0.00 85 1014.7
20260905152906 23 13 3.2 8.0 0.00 0.38 0.00 85 1014.8
20260905152406 23 351 1.6 6.4 0.00 0.38 0.00 85 1014.7
20260905152136 22 0 1.6 4.8 0.00 0.38 0.00 87 1014.8
20260905151406 22 0 1.6 6.4 0.00 0.38 0.00 87 1014.8
20260905150906 22 215 3.2 11.3 0.00 0.38 0.00 88 1014.7
20260905150405 22 13 3.2 11.3 0.00 0.38 0.00 88 1014.6
20260905145906 22 24 1.6 8.0 0.00 0.38 0.00 88 1014.5
20260905145404 22 350 0.0 3.2 0.00 0.38 0.00 88 1014.4
20260905144905 22 0 0.0 6.4 0.00 0.38 0.00 88 1014.5
20260905144402 22 336 1.6 6.4 0.00 0.38 0.00 88 1014.4
20260905143901 22 305 1.6 4.8 0.00 0.38 0.00 88 1014.3
20260905143402 22 337 1.6 4.8 0.00 0.38 0.00 88 1014.3
20260905142859 22 358 1.6 4.8 0.00 0.38 0.00 88 1014.2
20260905142631 22 0 1.6 3.2 0.00 0.38 0.00 88 1014.1
20260905141859 22 264 1.6 4.8 0.00 0.38 0.00 88 1014.1
20260905141359 22 18 1.6 6.4 0.00 0.38 0.00 88 1014.1
20260905140904 22 33 1.6 6.4 0.00 0.38 0.00 88 1014.0
20260905140359 22 357 1.6 4.8 0.00 0.38 0.00 88 1014.0
20260905135859 22 340 1.6 8.0 0.00 0.38 0.00 88 1013.9
20260905135359 22 5 1.6 8.0 0.00 0.38 0.00 88 1013.9
20260905135126 22 315 1.6 6.4 0.00 0.38 0.00 89 1013.9
20260905134354 22 358 1.6 6.4 0.00 0.38 0.00 89 1014.0
20260905133854 22 348 1.6 4.8 0.00 0.38 0.00 89 1014.0
20260905133354 22 36 1.6 6.4 0.00 0.38 0.00 90 1014.0
20260905132854 22 316 1.6 6.4 0.00 0.38 0.00 91 1014.0
20260905132354 22 359 1.6 6.4 0.00 0.38 0.00 92 1014.0
20260905131857 22 0 1.6 4.8 0.00 0.38 0.00 93 1014.2
20260905131627 21 21 1.6 4.8 0.00 0.38 0.00 93 1014.2